Lamar, CO

7:01 PM MDT on August 22, 2017 (GMT -0600)
Lamar Municipal

Weather History for KLAA - March, 2012

Change the Weather History Date:

Thursday, March 8, 2012

  Actual Average Record
Temperature  
Mean Temperature 35 °F 40 °F  
Max Temperature 50 °F 56 °F 83 °F (1918)
Min Temperature 19 °F 24 °F 2 °F (1948)
Degree Days  
Heating Degree Days 30 25  
Month to date heating degree days 184 212  
Since 1 July heating degree days 4362 4523  
Cooling Degree Days 0 0  
Month to date cooling degree days 0 0  
Year to date cooling degree days 0 0  
Moisture  
Dew Point 11 °F    
Average Humidity 48    
Maximum Humidity 77    
Minimum Humidity 18    
Precipitation  
Precipitation 0.00 in 0.03 in 0.35 in (1921)
Month to date precipitation 0.12  
Year to date precipitation 0.32  
Snow  
Snow 0.00 in - - ()
Month to date snowfall 0.0  
Snow Depth 0.00 in    
Sea Level Pressure  
Sea Level Pressure 30.45 in    
Wind  
Wind Speed 8 mph (NNW)    
Max Wind Speed 21 mph    
Max Gust Speed 28 mph    
Visibility 10 miles    
Events      
T = Trace of Precipitation, MM = Missing Value Source: NWS Daily Summary

Daily Weather History Graph

Daily Weather History Graph

Search for Another Location

Airport or City:

Trip Planner

Search our weather history database for the weather conditions in past years. The results will help you decide how hot, cold, wet, or windy it might be!

Date:

Astronomy

Mar. 08, 2012 Rise Set
Actual Time 6:11 AM MST 5:51 PM MST
Civil Twilight 5:45 AM MST 6:18 PM MST
Nautical Twilight 5:14 AM MST 6:48 PM MST
Astronomical Twilight 4:44 AM MST 7:19 PM MST
Moon 6:40 PM MST (3/8) 5:58 AM MST (3/8)
Length of Visible Light 12h 32m
Length of Day
11h 40m
Full, 100% of the Moon is Illuminated
Mar 8
Full
Mar 14
Last Quarter
Mar 22
New
Mar 30
First Quarter
Apr 6
Full

Hourly Weather History & Observations

Time (MST) Temp. Windchill Dew Point Humidity Pressure Visibility Wind Dir Wind Speed Gust Speed Precip Events Conditions
12:53 AM 33.1 °F - 21.0 °F 61% 30.22 in 10.0 mi Calm Calm - N/A   Clear
1:53 AM 30.0 °F 22.4 °F 19.9 °F 66% 30.25 in 10.0 mi North 8.1 mph - N/A   Clear
2:53 AM 28.0 °F 19.3 °F 19.9 °F 72% 30.27 in 10.0 mi North 9.2 mph - N/A   Clear
3:53 AM 25.0 °F 19.3 °F 18.0 °F 75% 30.33 in 10.0 mi NW 4.6 mph - N/A   Clear
4:53 AM 25.0 °F 15.5 °F 18.0 °F 75% 30.38 in 10.0 mi NNW 9.2 mph - N/A   Clear
5:53 AM 21.0 °F 13.4 °F 15.1 °F 78% 30.43 in 10.0 mi WNW 5.8 mph - N/A   Clear
6:53 AM 25.0 °F 16.3 °F 15.1 °F 66% 30.44 in 10.0 mi WNW 8.1 mph - N/A   Clear
7:53 AM 32.0 °F 22.5 °F 15.1 °F 50% 30.45 in 10.0 mi North 12.7 mph - N/A   Clear
8:53 AM 37.9 °F 28.9 °F 12.9 °F 36% 30.48 in 10.0 mi North 16.1 mph - N/A   Clear
9:53 AM 39.9 °F 32.1 °F 12.0 °F 32% 30.49 in 10.0 mi NNE 13.8 mph 24.2 mph N/A   Clear
10:53 AM 43.0 °F 38.8 °F 9.0 °F 25% 30.48 in 10.0 mi Variable 6.9 mph 18.4 mph N/A   Clear
11:53 AM 45.0 °F 39.3 °F 8.1 °F 22% 30.47 in 10.0 mi NE 11.5 mph 23.0 mph N/A   Clear
12:53 PM 46.9 °F - 7.0 °F 20% 30.45 in 10.0 mi NNW 12.7 mph 23.0 mph N/A   Clear
1:53 PM 46.9 °F - 7.0 °F 20% 30.44 in 10.0 mi NNE 9.2 mph - N/A   Clear
2:53 PM 48.0 °F - 6.1 °F 18% 30.44 in 10.0 mi North 5.8 mph - N/A   Clear
3:53 PM 48.0 °F - 6.1 °F 18% 30.44 in 10.0 mi NNW 8.1 mph - N/A   Clear
4:53 PM 45.0 °F 40.6 °F 6.1 °F 20% 30.45 in 10.0 mi North 8.1 mph - N/A   Clear
5:53 PM 39.9 °F 36.7 °F 7.0 °F 26% 30.49 in 10.0 mi ENE 4.6 mph - N/A   Clear
6:53 PM 36.0 °F 31.1 °F 7.0 °F 30% 30.52 in 10.0 mi ESE 5.8 mph - N/A   Clear
7:53 PM 27.0 °F 18.0 °F 8.1 °F 45% 30.54 in 10.0 mi SSW 9.2 mph - N/A   Clear
8:53 PM 24.1 °F 15.2 °F 9.0 °F 53% 30.56 in 10.0 mi South 8.1 mph - N/A   Clear
9:53 PM 24.1 °F 17.0 °F 9.0 °F 53% 30.57 in 10.0 mi SSW 5.8 mph - N/A   Clear
10:53 PM 19.9 °F 10.1 °F 9.0 °F 62% 30.57 in 10.0 mi SSW 8.1 mph - N/A   Clear
11:53 PM 19.0 °F 10.0 °F 9.0 °F 65% 30.57 in 10.0 mi SSW 6.9 mph - N/A   Clear